Theta_e
353 353 352 352 352 352 351 351 350 349 349 348 348 347 347 347 347 347 347 347 347 347 346 345 344 343 341 339 338 339 339 337 335 334 333 333 333 333 333 333 334 337 341 343 343 341 340 340 340 340 340 339 340 341 342 343 344 343 343 344 346 346 345
353 353 352 352 352 352 352 352 350 349 349 349 349 348 348 348 347 348 348 348 348 347 346 345 344 344 343 342 339 338 338 338 336 335 334 333 333 332 332 332 332 333 337 341 343 343 341 340 340 339 339 338 338 339 340 341 341 342 342 342 344 345 345
349 351 353 352 352 352 352 352 351 350 350 349 349 348 348 348 349 349 348 348 348 347 347 346 345 344 344 344 342 339 337 337 336 335 334 334 333 333 332 332 332 332 333 336 341 343 342 341 340 340 339 338 338 337 338 339 339 340 340 341 342 343 344
344 347 350 352 352 352 352 352 351 351 351 350 350 349 349 349 349 349 349 349 349 349 347 346 346 345 344 344 344 342 339 337 335 335 334 334 334 334 333 332 332 331 331 333 337 341 342 341 341 341 340 339 338 337 337 338 339 338 339 340 340 340 341
341 343 346 350 352 351 351 352 352 352 352 351 350 350 350 350 349 349 349 349 349 349 348 347 346 346 345 344 345 345 343 340 337 335 334 334 333 334 334 333 331 331 331 331 333 337 339 341 341 341 340 339 338 337 337 338 339 339 339 339 339 339 339
340 342 344 347 351 352 351 351 351 352 352 351 351 351 351 350 349 349 349 349 349 349 349 348 347 346 346 345 345 346 346 344 340 336 334 334 333 333 333 333 332 331 331 331 332 333 335 337 338 339 340 340 339 337 336 337 338 338 339 339 339 339 338
338 341 344 346 350 352 351 351 351 351 351 351 350 350 351 350 350 349 349 349 349 349 349 348 347 347 346 345 345 346 346 346 344 339 335 334 333 333 333 332 332 331 331 331 331 332 333 333 334 336 338 339 339 338 336 337 338 338 339 339 338 338 338
337 339 343 347 350 351 352 351 351 351 351 350 350 350 350 350 349 349 349 349 349 349 349 348 348 347 347 346 345 346 346 346 346 344 340 336 334 333 332 332 332 331 331 331 331 332 332 332 333 334 335 337 338 339 338 337 338 338 338 338 338 337 337
337 339 342 347 350 351 352 352 351 351 350 350 350 350 350 350 350 349 349 349 348 348 348 348 348 348 348 347 346 346 347 346 347 347 345 342 338 335 333 332 332 332 331 330 330 331 331 331 332 333 334 335 336 337 338 338 338 339 338 337 336 335 336
335 337 340 344 348 350 351 351 351 351 351 350 350 350 349 349 349 349 349 349 348 348 348 348 348 348 348 348 347 346 346 347 347 347 347 346 343 340 337 334 332 332 331 331 331 330 330 330 331 332 333 334 334 334 335 336 338 338 335 333 332 332 334
332 334 337 341 344 347 349 350 351 351 352 351 350 349 349 349 349 349 349 349 348 348 348 347 348 348 348 347 347 346 347 347 347 347 347 347 347 345 343 339 336 333 331 331 332 331 330 330 330 330 331 332 332 331 333 335 337 336 332 328 327 328 329
330 331 333 336 339 342 345 346 348 349 351 351 350 350 350 349 349 349 349 349 349 348 348 348 347 348 348 347 347 347 347 347 347 347 348 348 348 347 346 344 342 339 336 333 332 331 331 330 329 329 328 329 329 329 330 333 334 333 330 327 326 326 326
328 328 329 331 334 338 341 343 346 347 348 350 350 350 350 349 349 348 348 349 349 348 348 348 348 347 347 347 347 347 347 347 348 348 348 348 348 348 348 347 346 345 343 340 336 332 331 331 330 329 328 327 327 327 328 328 330 329 328 327 327 326 326
326 326 326 327 330 333 336 339 343 345 346 347 348 349 349 349 349 349 348 348 349 348 348 347 347 347 347 347 347 347 347 348 348 347 348 348 348 348 348 348 347 347 347 346 343 338 334 331 330 329 329 328 327 327 327 327 327 327 327 326 326 326 326
325 325 325 325 326 327 330 333 338 342 344 345 346 348 348 349 349 349 349 349 348 348 348 348 348 347 347 347 347 348 348 347 348 348 348 348 348 349 349 348 348 348 348 348 347 345 341 337 333 330 329 328 328 328 327 327 327 326 326 326 326 326 326
324 323 324 324 325 325 325 327 330 335 341 345 346 346 347 348 349 348 349 349 349 349 348 348 348 348 348 347 348 348 348 348 348 348 349 349 349 349 349 349 349 348 348 349 348 348 347 345 342 338 333 330 328 328 328 327 327 327 327 327 327 326 326
323 322 323 323 324 324 324 323 324 327 334 340 344 346 347 347 348 349 349 349 349 349 348 348 349 349 349 348 349 349 348 348 349 348 348 349 349 349 349 349 349 349 349 349 349 349 349 349 347 345 342 337 331 329 328 327 327 326 326 326 326 326 326
322 322 322 321 322 324 324 324 323 323 325 328 334 341 346 347 347 348 349 349 349 349 349 349 349 349 349 349 349 349 349 349 349 349 349 349 349 349 350 349 349 349 349 349 349 350 350 350 350 349 347 344 338 334 331 328 327 326 326 325 325 325 325
322 322 321 321 321 322 324 325 325 324 322 322 324 330 338 345 348 348 349 349 349 350 350 350 350 349 349 349 349 349 350 349 349 349 349 349 350 350 349 349 349 349 350 350 350 350 351 351 351 351 350 348 345 341 337 333 331 329 329 328 327 327 326
321 321 321 321 320 320 322 324 326 326 325 323 322 323 328 335 341 346 348 349 349 350 350 350 350 350 350 349 349 349 349 349 349 349 350 350 350 350 350 349 350 350 350 350 350 351 351 352 352 352 352 351 350 348 346 342 337 335 334 333 332 332 331
321 321 321 320 320 320 320 322 325 326 327 326 324 323 323 325 329 334 339 345 349 350 350 350 350 351 351 350 349 349 349 349 349 349 349 350 349 349 349 350 350 350 350 351 351 351 352 352 352 352 352 353 352 352 351 349 346 343 341 339 338 337 337
320 320 321 320 319 319 320 321 322 324 327 328 327 326 325 324 323 324 330 340 347 349 350 351 351 350 351 351 350 350 350 349 350 349 350 350 349 349 349 350 350 351 351 351 351 351 352 352 352 353 353 353 353 353 353 353 352 351 349 347 345 345 344
319 319 320 320 319 319 319 320 321 322 325 327 328 328 328 326 324 323 325 335 344 347 347 349 351 351 351 351 351 351 351 351 351 350 350 350 349 350 350 350 350 351 351 351 351 351 352 353 353 353 353 353 353 353 353 354 354 354 353 353 352 351 350
318 318 318 318 319 319 319 319 320 321 323 325 327 328 330 329 327 325 322 327 339 346 347 347 349 351 351 352 351 351 352 352 352 351 351 351 350 350 351 351 351 351 351 351 351 352 353 353 354 354 354 354 354 354 354 355 355 355 355 355 355 355 353
317 317 317 317 317 318 318 318 319 320 321 323 325 327 329 330 329 327 324 322 329 339 345 347 349 350 350 351 351 351 352 352 352 352 352 352 352 351 351 351 352 351 351 352 352 352 353 353 353 354 354 354 355 355 355 355 355 356 356 356 357 356 355
317 317 317 316 316 316 316 316 317 318 319 321 324 325 327 329 330 329 327 324 323 329 336 341 344 346 348 349 350 351 352 352 352 352 352 353 353 353 352 351 351 351 351 351 351 351 352 353 354 355 355 355 356 356 356 356 356 356 357 357 357 357 357
316 316 316 316 316 315 315 315 315 316 318 320 321 324 326 327 329 330 329 327 324 324 328 332 335 337 340 345 347 347 347 350 353 353 353 353 352 353 353 353 352 351 351 352 351 351 353 354 354 355 356 356 357 357 357 357 357 357 357 357 357 358 358
315 315 315 315 315 315 314 314 313 314 316 318 320 322 324 326 327 329 331 330 328 325 324 326 331 331 331 334 337 337 338 342 347 349 352 353 353 352 352 353 352 351 351 353 354 354 355 355 356 357 357 357 357 357 357 357 357 357 357 357 358 358 358
313 314 314 314 315 314 314 313 313 313 314 316 318 320 322 325 326 328 330 331 331 329 326 325 327 330 329 326 326 328 331 332 334 338 344 351 354 353 353 353 352 352 353 354 354 354 355 355 356 357 358 358 358 358 357 357 357 357 357 357 358 358 358
310 311 313 313 314 314 314 313 313 312 313 314 317 319 321 323 325 327 328 330 331 332 331 327 325 327 330 328 324 324 325 325 327 330 336 343 348 351 353 353 353 354 354 354 354 354 355 356 357 358 359 359 358 358 358 358 357 357 357 357 357 357 357
308 309 310 312 313 313 313 312 312 312 312 313 315 318 320 321 323 325 327 328 330 331 332 331 328 326 328 330 328 325 324 323 323 324 328 335 339 343 348 351 353 354 354 354 354 354 355 357 357 358 359 359 358 358 358 358 358 356 356 357 357 357 357
308 308 308 309 311 312 313 313 312 312 312 312 314 316 319 320 321 322 324 326 328 330 330 331 330 328 328 330 331 329 327 327 327 325 327 331 331 331 336 342 346 349 352 354 354 355 355 356 357 359 360 360 358 356 356 357 358 356 355 355 355 355 356
307 308 308 308 309 310 311 312 312 312 312 312 312 314 317 319 320 321 322 324 326 328 329 329 330 331 330 329 330 331 330 331 331 330 330 331 330 327 329 334 339 344 346 349 353 356 357 357 358 360 361 359 356 352 353 355 356 355 353 353 354 354 355
307 308 308 308 308 308 309 310 311 312 312 312 312 312 315 317 319 320 321 322 323 325 327 328 328 330 330 328 327 328 330 331 331 329 331 335 335 332 330 331 336 341 343 347 353 357 357 358 359 359 359 357 354 352 351 352 352 352 351 351 352 352 353
307 308 308 308 308 308 308 308 309 311 312 312 312 311 313 316 318 319 320 321 321 323 324 326 327 328 329 329 325 324 326 330 331 328 327 331 335 336 334 332 334 337 339 342 349 354 356 356 357 356 356 356 356 356 355 353 350 350 350 350 351 351 351
307 308 308 308 308 308 308 308 308 309 310 312 312 311 312 314 317 319 319 320 321 321 322 324 325 326 327 329 328 326 326 328 330 329 327 327 331 335 337 335 335 337 337 336 340 346 348 348 348 350 354 357 358 357 357 357 355 355 355 354 353 352 352
308 308 308 308 308 308 308 308 308 308 309 311 311 311 311 312 315 318 319 319 320 320 321 322 324 324 325 327 328 329 329 327 327 328 329 330 332 336 339 340 338 338 338 337 338 340 341 343 345 348 353 357 356 355 355 357 357 358 358 357 356 356 354
308 308 308 308 308 309 309 310 310 309 309 310 311 311 311 311 313 316 318 319 319 320 320 321 322 323 324 325 326 328 330 329 327 327 330 332 333 335 339 342 342 340 337 338 341 343 344 347 349 350 351 354 356 356 356 356 357 359 359 358 358 357 356
Wind_Speed
25 26 28 30 31 32 34 36 40 42 42 42 41 40 40 40 39 38 36 34 32 32 33 32 30 28 28 29 30 30 29 27 26 25 24 22 22 21 21 20 19 18 18 17 16 14 12 11 11 11 10 10 9 9 9 9 8 8 8 8 8 7 6
18 24 26 28 30 32 35 37 41 43 43 43 42 42 42 41 41 40 38 36 33 32 32 33 32 30 28 27 28 30 30 29 28 26 25 24 22 21 21 21 20 19 18 17 16 15 14 13 12 12 11 11 10 10 10 10 10 9 8 9 9 9 8
8 15 23 27 29 32 34 37 41 43 44 44 43 43 43 43 42 40 39 37 36 34 33 33 33 32 29 27 27 28 30 30 29 28 27 26 23 22 21 21 21 20 19 18 17 16 15 15 13 13 12 12 11 11 11 10 11 11 10 9 9 9 9
16 11 17 25 30 32 35 38 41 43 43 44 45 44 44 43 42 40 39 38 37 36 35 34 34 33 32 29 28 28 28 29 29 28 28 27 25 23 22 22 22 21 20 19 18 17 16 16 15 14 14 13 12 12 11 11 11 11 11 11 10 9 9
20 15 13 20 26 30 33 35 38 39 40 40 43 44 44 43 42 41 41 39 38 37 35 33 33 34 34 32 30 28 27 27 28 28 28 28 27 25 24 23 23 22 21 20 19 18 17 16 16 15 15 14 14 13 13 12 12 12 12 12 11 10 9
21 18 12 16 23 26 29 31 32 34 35 36 40 44 43 42 42 42 41 41 39 38 37 35 33 33 34 33 32 30 27 27 27 27 27 28 28 27 26 25 24 23 22 21 21 20 19 18 18 17 16 16 15 15 14 13 13 13 13 13 12 11 10
21 22 15 8 18 22 24 26 28 29 31 34 36 40 42 42 42 42 42 42 41 39 38 37 35 34 34 34 34 32 29 28 27 27 27 27 28 28 28 27 25 25 23 23 22 21 20 19 19 18 17 17 17 16 16 15 14 14 14 14 13 12 11
24 25 22 9 7 16 19 23 26 26 30 34 35 36 40 41 41 42 42 42 42 40 39 38 37 36 34 35 35 33 31 29 28 28 27 27 27 28 28 28 27 26 25 24 23 22 22 20 20 19 18 18 19 18 17 17 16 16 16 16 15 14 13
28 30 27 18 6 5 10 18 24 25 28 34 36 37 39 39 39 41 42 42 42 41 40 39 38 37 35 34 35 34 32 31 30 29 28 28 28 27 28 28 28 28 27 25 24 23 22 21 21 20 19 19 20 20 19 19 18 17 17 17 16 15 14
29 32 31 24 16 8 5 8 15 20 24 31 36 36 37 38 39 39 40 41 42 42 41 40 39 39 37 35 35 34 34 33 32 31 29 29 29 28 28 27 28 29 28 27 26 24 23 22 22 21 19 19 20 21 21 21 20 19 18 17 16 15 14
28 34 35 31 25 16 9 7 6 11 17 25 33 35 36 37 37 38 39 40 41 41 41 41 41 40 39 37 36 36 36 35 34 33 32 30 30 29 28 28 28 29 29 29 28 27 25 23 23 22 21 21 21 22 22 22 22 21 19 18 16 15 14
26 31 36 35 31 25 17 11 6 5 10 16 22 27 33 37 37 37 38 39 40 40 41 41 41 41 40 39 38 38 38 37 36 35 33 32 31 29 28 28 29 29 29 29 30 29 28 26 25 24 23 22 22 22 22 22 22 22 20 19 18 17 16
27 30 35 36 34 30 25 19 12 6 5 10 13 15 22 30 34 35 37 38 38 39 41 41 41 41 41 40 40 40 39 38 37 36 34 33 31 30 29 28 28 28 28 29 30 30 30 29 28 27 25 25 24 24 23 23 23 23 22 21 20 19 19
30 34 35 36 36 34 31 26 19 13 7 4 8 10 14 19 24 28 34 37 37 38 40 41 42 42 41 41 41 41 40 39 38 36 35 34 32 30 30 29 29 28 28 28 29 30 31 31 31 29 28 28 27 27 26 25 25 25 24 23 23 22 21
29 33 35 34 35 34 33 31 26 19 13 7 3 6 10 14 18 21 25 31 35 38 39 39 41 41 41 41 41 41 40 39 39 38 36 35 33 32 31 31 30 29 29 28 29 29 30 31 32 32 31 31 30 29 29 29 28 28 27 26 25 24 24
25 29 32 32 31 31 31 31 30 26 19 12 6 2 4 8 13 18 21 24 27 33 37 38 39 39 40 41 40 40 40 39 39 38 37 35 34 33 32 32 31 31 30 29 28 29 30 31 32 33 33 33 33 32 32 32 31 30 29 28 28 27 26
23 25 29 30 29 28 28 28 29 28 25 19 14 8 2 2 6 12 18 21 21 24 30 36 38 38 38 39 40 39 39 39 38 38 37 36 34 34 33 33 32 32 31 30 29 28 29 29 31 32 33 34 34 35 35 35 33 32 31 30 30 29 29
20 22 26 28 29 27 26 26 26 26 25 24 22 16 9 3 2 6 12 18 20 22 24 28 34 37 38 37 39 39 38 37 38 38 37 36 35 35 34 33 33 32 31 30 30 29 29 29 29 30 32 33 35 35 36 36 35 33 32 31 31 30 30
18 19 21 25 27 27 26 25 23 22 22 22 23 22 17 11 6 4 7 11 16 21 23 24 26 32 37 38 37 38 37 37 37 38 37 37 36 35 35 34 34 33 31 31 30 30 29 28 29 29 29 31 33 34 36 36 35 34 33 33 32 31 31
16 17 19 21 24 25 25 25 24 21 19 18 18 20 22 19 14 9 5 7 11 16 21 24 24 26 31 36 37 36 36 37 38 38 38 38 37 37 37 37 35 34 32 32 32 31 29 29 29 29 29 29 30 31 32 34 35 34 34 33 33 32 32
16 17 18 19 22 24 24 24 24 23 21 18 15 15 19 21 20 18 13 8 8 12 15 18 22 25 26 30 33 34 35 36 38 38 38 38 39 39 39 38 37 35 35 34 34 32 29 29 30 30 29 28 29 29 29 30 32 32 33 33 33 33 33
16 17 17 19 21 22 23 23 24 24 23 21 17 14 15 16 18 20 19 13 7 9 13 16 20 23 25 27 29 32 34 36 37 38 37 36 39 41 41 40 39 37 36 36 36 34 32 31 31 30 29 28 29 30 29 29 29 29 30 31 31 31 32
16 17 17 18 20 21 21 22 22 22 22 21 20 17 16 15 14 16 18 16 9 3 7 14 20 23 26 28 31 33 34 35 37 37 36 35 36 38 40 41 41 40 39 38 37 36 33 31 30 29 29 29 29 29 29 28 27 27 28 28 28 29 30
17 18 19 19 20 20 21 21 22 22 22 22 21 20 18 16 14 12 15 16 12 6 2 4 12 18 22 26 30 33 33 34 35 35 35 36 36 35 36 38 40 41 40 39 38 36 34 31 30 29 29 29 29 28 28 27 27 26 26 26 26 27 29
20 21 21 21 21 21 21 21 21 22 22 21 22 22 20 18 16 12 12 15 14 9 5 2 4 9 13 17 23 28 31 32 34 34 34 35 36 35 33 33 36 40 41 40 39 38 35 34 33 31 29 28 28 28 28 28 27 26 26 25 25 26 27
23 23 24 23 22 22 22 22 22 22 22 22 22 22 22 20 18 15 12 11 12 11 8 6 5 6 6 10 15 19 22 25 28 31 33 34 35 34 32 30 31 35 38 40 41 40 37 36 35 32 30 29 28 28 28 28 28 27 26 25 25 26 26
24 24 24 24 24 24 24 24 24 23 22 21 21 21 21 21 19 18 15 12 11 11 11 10 8 7 6 7 8 8 10 14 17 20 24 28 30 31 31 29 28 28 31 35 39 37 36 36 36 34 32 30 29 28 28 28 28 27 26 25 25 26 26
25 25 24 24 24 25 26 26 25 25 22 20 20 20 21 20 19 18 18 16 13 11 10 11 10 9 7 6 4 2 4 8 10 11 15 20 25 28 28 26 25 25 25 28 32 33 34 37 37 36 34 32 30 30 29 28 27 26 25 25 25 25 27
27 27 26 26 25 26 27 27 27 26 25 21 19 18 19 19 18 17 17 17 16 14 11 10 10 10 8 7 5 3 2 5 7 8 10 14 19 23 25 24 23 23 23 24 27 29 33 37 37 35 34 32 30 30 30 29 28 27 26 26 26 26 27
28 28 27 27 27 26 26 28 28 28 26 23 20 17 17 18 18 16 15 15 16 16 13 10 9 9 9 8 8 5 2 4 7 8 9 12 15 17 18 19 20 21 21 22 24 27 31 36 37 33 30 29 28 27 27 29 30 29 27 27 27 27 27
28 29 29 28 28 27 27 28 29 29 28 25 21 18 16 16 17 17 15 13 14 15 15 13 10 10 10 9 9 7 6 5 6 8 10 12 14 15 15 15 17 19 20 20 23 26 30 35 36 31 25 25 28 29 28 28 29 31 30 28 28 28 28
29 29 30 30 30 28 28 29 29 29 28 27 24 20 17 16 16 17 16 14 13 14 14 14 13 12 11 10 9 9 9 8 7 7 10 12 13 14 16 17 18 19 19 20 24 28 32 36 36 30 25 24 29 34 33 28 27 30 32 30 29 29 29
31 30 30 30 31 30 29 29 30 30 29 28 27 23 20 17 16 16 16 16 15 14 13 14 14 13 13 12 11 11 11 10 8 8 10 12 14 15 16 18 19 20 21 23 25 29 34 35 32 26 24 25 30 36 36 31 28 30 32 31 30 30 29
31 31 31 31 31 32 32 30 29 30 30 30 29 27 23 20 18 17 16 16 16 16 15 14 14 14 13 13 13 14 13 13 12 12 11 12 15 17 19 20 21 22 24 26 29 31 34 34 30 27 27 30 33 35 35 35 34 34 33 32 30 28 27
32 31 32 31 31 32 34 33 31 30 30 31 31 30 27 23 21 19 18 16 16 16 16 16 15 14 14 13 14 15 15 15 15 15 14 14 15 18 21 22 23 25 27 29 32 34 35 35 34 34 34 35 36 36 36 36 36 34 31 30 29 27 25
32 30 31 32 31 32 34 36 34 31 30 30 31 31 29 26 23 22 20 18 17 16 16 16 16 15 14 13 13 14 15 16 16 17 17 17 17 19 21 24 26 29 30 31 32 32 32 33 35 35 34 35 36 38 39 38 37 34 32 31 31 30 27
29 28 30 31 31 31 33 35 35 34 31 30 31 33 31 29 26 24 22 20 19 17 17 17 16 16 14 13 13 14 14 15 17 18 19 19 18 19 20 22 26 30 32 33 33 31 30 31 34 34 34 35 37 39 41 41 39 37 35 33 33 31 29
26 26 27 28 28 29 29 29 31 33 31 30 31 34 33 31 28 26 24 22 20 19 19 18 17 16 15 14 14 15 14 14 16 19 20 19 19 20 21 21 23 26 30 32 35 35 33 33 34 34 34 35 37 39 41 41 40 39 37 34 33 31 29
Wind_Direction
217 214 212 210 209 209 209 212 216 217 219 221 222 223 224 224 225 227 227 228 229 230 229 228 227 226 226 227 226 226 225 225 225 227 229 229 228 227 226 225 224 223 222 223 226 227 226 224 224 224 222 220 222 223 225 227 227 225 224 226 230 231 228
224 218 216 213 211 211 211 213 217 219 220 222 222 222 223 224 226 226 227 227 228 229 230 229 228 227 227 227 228 228 227 226 226 226 229 230 230 229 228 228 228 227 227 227 228 229 228 227 227 229 228 225 224 225 227 230 230 230 232 230 231 235 237
290 236 223 217 214 213 212 213 217 219 221 222 222 222 223 225 227 227 227 228 228 229 230 230 229 228 227 227 228 229 229 228 226 225 227 230 230 231 230 230 230 230 231 230 229 229 228 228 229 232 233 231 230 228 228 230 231 231 233 233 233 236 239
337 292 243 225 217 215 214 215 217 218 219 222 224 224 224 227 228 228 228 229 229 229 229 230 230 229 229 228 228 229 230 229 227 225 226 229 230 231 232 231 231 231 231 230 229 228 228 229 232 235 236 236 235 233 230 230 232 232 233 234 236 237 237
343 324 270 237 223 217 216 216 216 217 217 219 223 225 227 228 228 228 229 230 231 232 231 231 231 231 230 230 229 230 230 230 230 227 226 228 230 232 232 232 231 231 231 231 229 227 227 228 231 236 239 238 238 237 233 233 235 235 236 236 237 239 238
349 342 307 250 230 219 216 215 215 215 214 215 222 226 227 227 227 228 229 230 231 231 231 231 232 232 231 230 230 230 231 231 231 229 227 228 230 232 232 232 231 231 232 232 231 229 229 230 232 235 238 240 241 239 236 235 236 237 239 240 239 241 242
358 359 353 275 232 221 215 214 213 213 215 217 220 225 227 226 226 228 228 229 230 230 230 230 231 232 232 231 231 231 231 232 232 231 229 228 229 231 233 233 232 232 233 233 233 231 231 231 233 234 235 237 238 238 237 234 235 238 240 242 243 243 245
10 13 20 22 228 220 214 213 211 209 214 219 218 222 226 226 226 227 228 229 230 230 231 230 230 232 232 231 232 232 233 233 233 233 232 230 230 231 233 234 234 233 233 233 234 233 232 232 233 234 234 235 235 235 235 234 233 236 239 242 245 246 247
21 26 32 44 70 194 210 214 214 209 212 221 221 220 224 225 226 228 229 230 230 231 232 232 231 232 233 232 233 233 234 234 235 235 234 233 232 232 233 234 235 235 235 235 234 234 233 232 232 233 234 235 235 234 234 234 232 233 237 242 245 248 249
23 32 37 45 59 79 136 187 209 210 212 223 226 223 223 225 225 227 229 230 231 232 234 233 233 234 234 234 233 234 235 235 236 237 236 235 235 234 233 233 235 236 237 237 237 236 234 233 233 234 233 234 234 233 233 233 231 231 234 238 242 246 249
22 33 40 43 49 59 82 115 162 194 207 222 228 226 224 224 225 227 229 230 231 233 234 234 234 235 236 235 235 234 236 236 236 237 237 237 237 236 235 235 235 237 237 237 239 238 236 234 233 233 232 232 231 231 231 230 229 230 232 236 239 243 248
22 31 39 41 43 48 54 65 92 157 192 210 220 224 226 227 226 227 230 232 233 233 234 235 235 236 237 237 236 235 236 237 237 238 239 239 239 239 238 238 238 238 238 238 239 239 239 237 234 232 230 229 229 228 229 228 229 230 232 235 238 241 246
27 32 37 40 42 44 46 49 58 77 149 189 199 212 223 227 227 227 229 232 233 233 234 235 235 237 238 237 237 237 238 238 239 240 240 241 241 241 241 241 240 241 241 240 240 240 240 240 238 234 231 230 229 228 228 228 229 232 234 237 239 241 245
33 36 36 39 40 41 41 43 47 53 69 143 187 197 206 214 219 224 230 234 234 232 234 235 236 238 239 238 238 239 240 240 241 242 242 243 243 243 242 242 242 243 243 243 242 241 242 242 241 239 236 234 232 231 231 230 231 233 235 237 240 243 245
30 32 32 33 35 36 36 38 41 44 48 61 129 186 196 203 207 213 224 233 235 234 234 236 237 239 239 239 239 241 242 242 243 244 244 245 244 244 244 244 244 245 245 244 244 242 242 242 243 243 241 239 236 235 234 234 234 235 235 237 240 242 245
22 25 28 30 29 30 32 34 37 40 43 45 51 97 182 199 205 208 214 223 231 236 237 237 239 240 240 240 241 243 244 244 244 245 246 246 246 246 245 245 246 246 245 245 245 244 244 243 243 243 243 242 241 239 238 238 237 237 237 238 241 243 246
18 19 23 26 26 26 29 31 33 37 40 42 40 34 22 211 209 210 212 214 220 230 235 238 241 241 240 242 244 245 245 245 246 246 247 248 248 247 247 246 246 247 247 247 247 247 246 246 245 244 244 243 243 242 242 241 240 240 240 241 242 244 247
15 15 17 21 22 22 24 25 27 30 32 35 37 34 25 358 287 230 218 215 216 218 224 233 241 243 242 243 245 246 247 248 248 248 249 249 249 248 248 247 248 248 248 248 248 248 248 249 248 247 245 245 245 244 244 244 243 242 243 243 244 246 248
13 11 11 15 17 17 17 18 21 24 25 27 30 32 30 22 358 304 250 231 224 220 218 221 231 241 244 244 245 248 250 249 249 250 251 251 251 250 250 249 248 248 248 249 249 249 249 250 250 249 248 247 246 246 246 247 246 245 244 245 246 247 250
10 8 7 9 12 13 13 13 14 18 23 25 26 28 29 29 24 9 325 270 247 234 227 223 223 231 241 244 246 249 250 249 250 252 253 254 254 253 252 251 250 250 249 249 250 250 249 249 250 250 249 249 249 249 249 248 248 247 246 246 246 247 249
4 3 2 3 5 8 10 10 8 10 16 22 23 24 26 28 27 22 12 339 278 251 236 227 223 224 231 237 240 243 243 243 245 249 251 254 255 254 253 254 254 253 252 252 251 251 250 249 250 251 250 250 250 250 250 249 249 249 248 247 247 247 248
359 359 359 358 360 3 5 5 5 6 9 12 16 18 18 21 25 22 14 0 321 265 243 232 227 225 225 228 233 238 241 243 245 246 249 252 254 254 254 255 256 255 254 254 254 254 252 251 251 251 251 250 251 251 251 249 249 249 248 248 247 247 248
354 355 355 356 357 359 359 358 0 3 3 4 8 13 14 15 21 24 16 7 4 339 252 239 235 232 230 231 234 237 240 244 246 248 250 251 252 253 255 256 258 258 256 255 254 254 254 252 251 251 251 251 251 251 251 250 249 248 248 248 247 247 248
345 347 349 353 355 355 354 352 354 358 0 0 1 4 11 14 15 24 24 14 8 15 12 239 226 227 230 233 236 238 241 244 245 247 251 251 250 252 256 258 259 260 260 257 255 255 255 255 254 253 253 253 253 252 252 252 251 250 250 249 248 248 248
333 336 340 345 347 349 350 348 349 354 355 356 356 357 3 11 13 16 24 21 11 1 357 346 224 223 230 235 239 243 247 248 248 250 253 254 253 252 255 259 261 261 262 261 259 258 256 255 256 256 255 255 255 256 256 255 254 253 251 249 248 248 248
324 326 329 332 335 339 344 344 344 348 350 351 353 354 356 1 8 10 13 21 21 15 6 341 293 262 253 246 243 248 254 254 254 254 254 255 255 254 254 258 261 262 263 263 262 260 257 255 256 257 258 258 258 258 258 256 255 254 251 250 249 248 248
314 315 318 321 325 330 335 338 338 339 344 347 348 348 350 354 359 3 3 9 16 16 13 358 326 294 270 248 241 255 269 266 260 259 257 256 254 253 252 254 258 262 264 265 264 260 255 256 258 258 259 261 260 259 257 255 254 253 252 251 250 248 247
307 308 310 313 317 322 326 329 331 332 334 341 345 344 344 347 351 354 353 356 2 5 6 3 346 318 284 248 216 235 285 276 270 274 275 264 253 249 250 253 258 262 262 263 262 257 256 260 262 261 261 262 261 259 255 252 251 251 250 250 249 248 248
304 304 305 307 309 314 318 320 323 325 325 330 338 340 338 337 341 347 347 345 348 350 351 354 349 332 301 260 222 204 295 306 300 298 294 279 260 249 248 250 254 257 256 255 256 256 258 262 262 260 260 260 259 258 255 251 247 245 245 246 247 246 246
302 300 299 300 301 304 309 312 314 316 317 321 326 332 333 331 330 335 340 338 337 338 341 340 337 335 320 282 250 235 263 318 316 304 287 276 267 257 251 251 253 252 250 249 250 252 256 259 258 257 255 255 255 254 252 249 246 243 241 243 245 245 244
302 300 297 295 294 296 300 303 305 307 309 312 315 320 325 326 325 325 327 329 327 327 331 330 325 325 323 303 276 262 260 265 286 296 283 268 266 266 262 258 257 254 250 248 248 249 251 253 253 250 247 248 250 250 249 249 248 247 244 243 244 244 243
301 300 298 295 292 290 290 292 295 298 301 303 307 311 315 317 319 320 320 320 319 319 319 319 318 315 310 306 300 290 278 263 261 277 276 268 269 274 271 265 261 258 254 252 249 247 246 249 249 247 243 244 247 249 249 248 248 249 247 245 244 243 243
300 299 297 295 292 290 287 285 287 290 294 297 299 303 306 308 309 311 313 313 314 313 308 306 309 308 302 301 306 304 297 287 274 270 272 268 267 270 269 265 261 258 254 253 252 248 245 245 245 243 242 245 248 250 250 249 249 249 247 245 245 244 244
300 298 296 294 292 290 288 284 282 282 286 289 292 295 298 301 301 302 305 307 308 309 305 299 300 303 302 300 302 304 305 299 285 275 276 274 265 259 257 255 255 253 251 251 252 251 248 248 249 249 249 252 255 256 256 254 252 250 249 250 250 250 249
298 296 295 294 291 289 287 285 281 278 277 281 285 289 291 294 295 295 297 301 304 305 305 299 295 298 302 300 296 296 299 300 290 278 273 275 273 264 254 247 246 247 247 247 247 248 249 251 253 256 259 260 262 262 261 259 256 255 257 259 258 258 256
295 293 293 293 291 288 285 284 282 278 273 273 278 283 286 288 290 290 291 294 297 300 303 301 297 298 302 301 293 289 290 295 297 287 276 274 276 272 261 248 242 243 246 247 246 246 248 252 254 256 258 260 262 263 262 261 261 262 264 265 264 263 262
291 289 290 292 291 287 284 282 281 278 273 269 271 277 281 282 283 284 286 288 291 294 298 299 297 296 299 299 293 288 285 288 292 289 281 275 273 273 268 257 247 243 245 248 250 248 249 253 258 260 261 261 263 264 262 260 260 262 263 264 265 265 264
286 285 288 288 286 285 283 281 280 279 274 267 265 270 275 277 277 279 280 281 285 289 293 295 295 293 293 294 292 289 287 285 284 283 281 278 273 270 270 270 264 253 246 246 249 250 250 251 254 258 260 260 261 262 261 258 258 260 261 262 263 264 264